CAPE
0 0 0 0 0 0 0 0 0 0 0 0 0 0 0 0 0 0 0 0 0 0 0 0 0 0 0 0 0 0 203 683 636 521 302 147 24 85 17 131 134 187 172 165
0 0 0 0 0 0 0 0 0 0 0 0 0 0 0 0 0 0 0 0 0 0 0 0 0 0 0 0 0 0 0 39 266 430 386 288 207 111 154 229 374 342 393 356
0 0 0 0 0 0 0 0 0 0 0 0 0 0 0 0 0 0 0 0 0 0 0 0 0 0 0 0 0 0 0 0 0 15 226 249 210 211 334 415 500 684 611 631
0 0 0 0 0 0 0 0 0 0 0 0 0 0 0 0 0 0 0 0 0 0 0 0 0 0 0 0 0 0 0 0 0 0 1 121 199 210 275 361 561 778 871 1010
0 0 0 0 0 0 0 0 0 0 0 0 0 0 0 0 0 0 0 0 0 0 0 0 0 0 0 0 0 0 0 0 0 0 0 0 0 112 264 251 435 552 752 930
0 0 0 0 0 0 0 0 0 0 0 0 0 0 0 0 0 0 0 0 0 0 0 0 0 0 0 0 0 0 0 0 0 0 0 0 21 82 59 51 262 470 502 462
0 0 0 0 0 0 0 0 0 0 0 0 0 0 0 0 0 0 0 0 0 0 0 0 0 0 0 0 0 0 0 0 0 0 0 0 7 50 3 77 244 340 326 220
0 0 0 0 0 0 0 0 0 0 0 0 0 0 0 0 0 0 0 0 0 0 0 0 0 0 0 0 0 0 0 0 0 0 0 0 19 84 229 226 253 359 277 92
0 0 0 0 0 0 0 0 0 0 0 0 0 0 0 0 0 0 0 0 0 0 0 0 0 0 0 0 0 0 0 0 0 0 0 0 0 27 114 302 314 378 281 81
0 0 0 0 0 0 0 0 0 0 0 0 0 0 0 0 0 0 0 0 0 0 0 0 0 0 0 0 0 0 0 0 0 0 0 0 0 0 32 147 211 302 194 126
0 0 0 0 0 0 0 0 0 0 0 0 0 0 0 0 0 0 0 0 0 0 0 0 0 0 0 0 0 0 0 0 0 0 0 0 0 0 6 113 192 196 103 155
0 0 0 0 0 0 0 0 0 0 0 0 0 0 0 0 0 0 0 0 0 0 0 0 0 0 0 0 0 0 0 0 0 0 0 0 0 0 0 37 130 114 165 465
0 0 0 0 0 0 0 0 0 0 0 0 0 0 0 0 0 0 0 0 0 0 0 0 0 0 0 0 0 0 0 0 0 0 6 0 0 0 0 0 108 210 387 657
6 0 0 0 0 0 0 0 0 3 1 0 0 0 0 0 0 0 0 0 0 0 0 0 0 0 0 0 0 0 0 0 0 10 231 0 0 0 0 66 188 422 653 883
0 0 0 0 0 0 0 0 0 0 0 3 0 0 0 0 0 0 0 0 0 0 0 0 0 0 0 0 0 1 17 0 0 513 374 2 1 92 203 387 531 890 1121 1279
0 0 0 0 0 0 0 0 0 0 0 0 0 0 0 0 0 0 0 0 0 0 0 0 0 0 0 0 0 0 33 49 450 950 636 429 451 480 523 804 1156 1191 1246 1239
8 0 0 0 0 0 0 0 0 0 0 0 0 0 0 0 0 0 0 0 0 0 0 0 0 0 0 0 0 3 61 52 1084 1070 1083 959 895 1017 1096 1147 1100 1144 1119 846
0 0 2 0 0 0 0 0 0 0 0 0 0 0 0 2 0 0 0 0 0 0 0 0 0 0 1 0 1 2 74 79 810 1132 1256 1142 1278 1106 1086 1074 1135 895 681 749
0 1 0 0 0 0 0 0 0 0 0 0 0 0 0 0 1 0 0 0 0 0 0 0 0 0 0 0 1 22 98 49 381 1105 1059 1121 1036 972 993 914 653 390 478 182
0 0 3 0 0 0 0 0 0 1 0 0 1 1 4 10 1 0 2 0 0 0 0 0 0 0 0 9 5 21 60 26 83 966 961 899 805 812 623 459 305 200 42 1
1 1 0 0 0 0 0 0 0 0 0 1 7 2 7 9 12 7 11 1 0 0 0 0 0 0 0 0 21 8 43 1 0 835 537 413 361 308 225 139 45 7 0 0
0 0 0 0 0 0 0 0 0 0 0 6 2 0 2 9 14 8 1 1 3 2 1 0 1 0 0 0 14 9 51 16 15 457 316 194 102 142 94 47 0 0 0 0
0 0 3 3 0 0 0 0 4 8 10 0 0 0 4 29 7 3 3 7 3 0 0 0 2 2 2 6 7 13 5 86 73 192 135 114 76 19 2 0 0 0 0 0
0 0 0 0 0 0 0 2 14 16 8 0 0 0 15 7 3 3 2 1 1 1 1 2 3 3 3 13 13 0 37 117 88 155 74 39 6 0 0 0 0 2 4 0
0 0 0 0 0 1 0 23 20 0 0 0 7 7 6 4 2 2 2 2 2 2 3 3 4 3 2 6 20 18 1 75 48 27 3 0 0 0 0 0 11 4 3 0
0 0 1 1 0 14 28 17 0 0 0 0 4 5 4 3 2 2 3 2 3 4 1 3 15 3 77 43 4 12 1 0 1 4 1 0 0 0 6 1 0 0 0 0
CIN
-0 -0 -0 -0 -0 -0 -0 -0 -0 -0 -0 -0 -0 -0 -0 -0 -0 -0 -0 -0 -0 -0 -0 -0 -0 -0 -0 -0 -0 -2 -409 -291 -359 -365 -367 -452 -421 -340 -231 -306 -391 -466 -373 -490
-0 -0 -0 -0 -0 -0 -0 -0 -0 -0 -0 -0 -0 -0 -0 -0 -0 -0 -0 -0 -0 -0 -0 -0 -0 -0 -0 -0 -0 -0 -0 -435 -369 -293 -296 -277 -230 -305 -293 -295 -380 -412 -556 -588
-0 -0 -0 -0 -0 -0 -0 -0 -0 -0 -0 -0 -0 -0 -0 -0 -0 -0 -0 -0 -0 -0 -0 -0 -0 -0 -0 -0 -0 -0 -0 -0 -0 -189 -329 -321 -316 -270 -252 -223 -236 -342 -451 -500
-0 -0 -0 -0 -0 -0 -0 -0 -0 -0 -0 -0 -0 -0 -0 -0 -0 -0 -0 -0 -0 -0 -0 -0 -0 -0 -0 -0 -0 -0 -0 -0 -0 -0 -25 -280 -193 -183 -199 -210 -278 -391 -462 -444
-0 -0 -0 -0 -0 -0 -0 -0 -0 -0 -0 -0 -0 -0 -0 -0 -0 -0 -0 -0 -0 -0 -0 -0 -0 -0 -0 -0 -0 -0 -0 -0 -0 -0 -0 -0 -0 -271 -238 -253 -254 -355 -415 -357
-0 -0 -0 -0 -0 -0 -0 -0 -0 -0 -0 -0 -0 -0 -0 -0 -0 -0 -0 -0 -0 -0 -0 -0 -0 -0 -0 -0 -0 -0 -0 -0 -0 -0 -0 -0 -350 -255 -243 -295 -290 -324 -342 -296
-0 -0 -0 -0 -0 -0 -0 -0 -0 -0 -0 -0 -0 -0 -0 -0 -0 -0 -0 -0 -0 -0 -0 -0 -0 -0 -0 -0 -0 -0 -0 -0 -0 -0 -0 -0 -396 -326 -99 -315 -332 -318 -275 -254
-0 -0 -0 -0 -0 -0 -0 -0 -0 -0 -0 -0 -0 -0 -0 -0 -0 -0 -0 -0 -0 -0 -0 -0 -0 -0 -0 -0 -0 -0 -0 -0 -0 -0 -0 -0 -367 -320 -331 -365 -388 -318 -226 -218
-0 -0 -0 -0 -0 -0 -0 -0 -0 -0 -0 -0 -0 -0 -0 -0 -0 -0 -0 -0 -0 -0 -0 -0 -0 -0 -0 -0 -0 -0 -0 -0 -0 -0 -0 -0 -0 -355 -350 -416 -406 -298 -283 -280
-0 -0 -0 -0 -0 -0 -0 -0 -0 -0 -0 -0 -0 -0 -0 -0 -0 -0 -0 -0 -0 -0 -0 -0 -0 -0 -0 -0 -0 -0 -0 -0 -0 -0 -0 -0 -0 -0 -361 -413 -353 -290 -297 -283
-0 -0 -0 -0 -0 -0 -0 -0 -0 -0 -0 -0 -0 -0 -0 -0 -0 -0 -0 -0 -0 -0 -0 -0 -0 -0 -0 -0 -0 -0 -0 -0 -0 -0 -0 -0 -0 -0 -260 -370 -327 -270 -294 -300
-0 -0 -0 -0 -0 -0 -0 -0 -0 -0 -0 -0 -0 -0 -0 -0 -0 -0 -0 -0 -0 -0 -0 -0 -0 -0 -0 -0 -0 -0 -0 -0 -0 -0 -0 -0 -0 -0 -0 -429 -365 -333 -298 -303
-8 -0 -0 -0 -0 -0 -0 -0 -0 -0 -0 -0 -0 -0 -0 -0 -0 -0 -0 -0 -0 -0 -0 -0 -0 -0 -0 -0 -0 -0 -0 -0 -0 -0 -246 -0 -0 -0 -0 -63 -394 -369 -326 -270
-12 -0 -0 -0 -0 -0 -0 -0 -0 -1 -0 -0 -1 -0 -0 -0 -0 -0 -0 -0 -0 -0 -0 -0 -0 -0 -0 -0 -0 -0 -0 -0 -0 -280 -310 -0 -0 -0 -0 -437 -400 -345 -304 -249
-0 -0 -0 -0 -0 -0 -0 -0 -0 -0 -0 -0 -0 -0 -0 -0 -0 -0 -0 -0 -0 -0 -0 -0 -0 -0 -0 -0 -0 -0 -127 -0 -0 -169 -241 -176 -351 -505 -456 -413 -365 -286 -216 -153
-10 -0 -0 -0 -0 -0 -0 -0 -0 -0 -0 -0 -0 -0 -0 -0 -0 -0 -0 -0 -0 -0 -0 -0 -0 -0 -0 -0 -0 -0 -141 -209 -143 -153 -230 -379 -417 -423 -376 -327 -232 -186 -147 -109
-6 -2 -1 -0 -0 -0 -0 -0 -0 -0 -0 -5 -3 -0 -0 -0 -0 -0 -0 -0 -0 -0 -0 -0 -0 -0 -0 -0 -0 -0 -124 -162 -34 -113 -190 -292 -318 -276 -262 -216 -190 -138 -89 -100
-1 -3 -0 -0 -0 -0 -0 -0 -0 -0 -0 -0 -0 -0 -0 -0 -0 -0 -0 -0 -0 -0 -0 -0 -0 -0 -50 -0 -0 -0 -90 -111 -38 -89 -103 -242 -209 -211 -177 -148 -114 -109 -108 -82
-0 -0 -0 -0 -0 -0 -0 -0 -0 -0 -0 -0 -0 -0 -0 -0 -0 -0 -0 -0 -0 -0 -0 -0 -0 -0 -0 -0 -46 -57 -51 -114 -100 -75 -108 -157 -207 -183 -136 -132 -137 -194 -122 -174
-0 -0 -4 -0 -0 -0 -0 -0 -0 -0 -0 -0 -6 -0 -0 -0 -0 -0 -1 -3 -0 -0 -0 -0 -0 -0 -0 -182 -88 -34 -42 -123 -127 -29 -92 -115 -147 -152 -161 -172 -183 -210 -237 -68
-3 -2 -1 -0 -0 -0 -0 -0 -0 -0 -0 -0 -10 -0 -1 -0 -0 -0 -0 -0 -0 -0 -0 -0 -0 -0 -0 -0 -6 -14 -16 -25 -0 -4 -86 -131 -173 -214 -219 -225 -249 -296 -0 -0
-0 -0 -0 -4 -3 -0 -0 -0 -0 -0 -0 -0 -7 -0 -2 -0 -0 -0 -0 -3 -1 -1 -0 -0 -0 -0 -0 -0 -0 -3 -15 -10 -39 -8 -78 -140 -206 -176 -169 -211 -7 -0 -0 -0
-0 -2 -1 -2 -0 -0 -0 -0 -0 -9 -22 -0 -0 -0 -7 -0 -0 -0 -0 -0 -0 -0 -0 -0 -0 -0 -0 -31 -1 -0 -29 -6 -5 -20 -75 -150 -172 -172 -147 -0 -0 -0 -0 -40
-0 -0 -0 -0 -0 -0 -0 -24 -21 -15 -7 -0 -0 -0 -0 -0 -0 -0 -0 -0 -0 -0 -0 -0 -0 -0 -0 -2 -3 -0 -5 -4 -5 -17 -32 -132 -171 -0 -0 -0 -0 -16 -98 -26
-0 -0 -0 -0 -0 -0 -2 -14 -7 -0 -0 -0 -5 -0 -0 -0 -0 -0 -0 -0 -0 -0 -0 -0 -0 -17 -7 -1 -3 -10 -10 -30 -23 -41 -111 -0 -0 -0 -0 -0 -61 -88 -62 -0
-0 -0 -0 -0 -0 -2 -0 -12 -0 -0 -0 -2 -0 -0 -0 -0 -0 -0 -0 -0 -0 -0 -0 -16 -15 -0 -0 -27 -24 -31 -25 -17 -11 -113 -37 -0 -0 -11 -129 -129 -0 -0 -0 -0
Wind_Speed
19 19 21 21 20 22 24 25 28 29 28 36 41 46 43 38 37 39 37 37 37 38 35 32 33 34 35 35 35 34 30 27 25 25 26 27 29 27 26 22 21 21 17 15
19 20 16 20 20 21 22 25 28 29 31 36 41 51 49 43 38 33 38 41 41 39 36 37 37 35 36 39 39 38 37 37 32 27 26 28 30 34 33 27 24 17 16 17
17 16 16 18 21 23 25 27 30 33 34 34 39 46 32 31 34 39 40 40 40 38 41 38 38 40 38 37 38 40 41 39 38 34 30 28 29 32 31 30 26 21 21 22
18 18 20 23 23 20 26 23 28 32 35 37 31 47 38 30 32 36 42 40 40 41 40 40 39 40 40 40 38 38 40 42 41 41 39 37 37 38 39 34 32 26 23 21
20 21 22 21 21 19 24 23 28 31 34 34 34 38 35 39 33 32 36 40 39 38 37 38 39 39 41 39 40 40 40 41 42 41 40 40 39 37 33 32 30 28 25 23
26 22 22 19 18 20 22 27 30 28 31 36 30 33 43 36 32 44 40 36 36 36 38 38 38 39 41 41 40 39 40 42 41 41 40 39 38 35 35 33 30 28 28 26
21 17 18 18 21 21 22 29 35 35 35 37 27 40 46 46 48 40 38 36 34 35 38 40 41 42 43 43 43 42 40 44 41 41 39 37 38 36 34 31 31 29 28 25
23 25 19 18 21 23 26 24 30 38 39 42 38 42 43 38 38 35 33 35 39 39 39 41 44 44 44 46 46 45 44 44 41 40 40 40 38 37 36 31 30 28 26 24
23 25 21 22 19 20 24 25 24 33 34 43 38 39 46 44 39 36 36 35 38 40 45 45 43 44 45 46 47 46 46 47 43 42 40 39 35 31 31 28 28 26 26 25
22 30 23 22 19 21 23 19 26 25 37 42 42 47 47 44 43 36 35 37 41 44 45 45 42 43 45 47 48 46 46 48 46 43 41 38 35 31 28 27 27 25 25 24
21 24 23 19 18 24 22 24 22 23 26 39 48 47 32 35 35 33 35 37 42 43 46 44 44 45 46 46 46 46 46 47 47 45 43 39 36 32 28 27 28 27 26 23
20 21 25 25 21 22 18 18 16 26 31 29 34 35 28 30 34 33 39 43 43 42 43 38 41 44 44 45 44 44 46 46 47 45 44 41 36 32 29 27 26 24 23 20
16 19 25 25 18 16 17 15 16 22 25 20 26 19 28 35 42 45 49 44 43 42 41 40 41 43 42 42 43 44 45 46 46 44 43 39 35 31 29 25 22 21 19 17
17 18 19 21 23 24 32 18 16 16 21 24 19 28 19 18 47 45 42 42 44 44 45 41 42 44 41 41 41 42 45 46 45 43 40 37 33 30 25 22 19 16 15 14
11 20 17 30 36 35 24 9 11 11 15 18 21 23 41 41 35 40 41 43 45 47 45 41 44 44 40 43 43 42 43 45 43 40 37 35 30 25 20 18 15 14 12 12
15 19 22 32 31 28 31 18 15 12 11 13 14 16 23 32 42 44 44 47 48 48 46 44 44 41 42 43 42 43 43 42 41 35 34 29 25 22 18 15 13 12 11 9
16 21 26 28 27 33 33 20 18 18 16 15 18 26 46 37 35 43 43 45 48 45 42 43 42 37 38 38 39 42 41 38 37 30 29 25 23 20 17 15 12 10 9 8
16 18 25 32 31 27 20 23 21 20 19 17 19 32 31 34 47 47 48 47 44 43 44 41 41 36 27 35 37 38 37 35 33 25 26 21 20 18 15 13 10 8 9 9
6 9 24 27 27 34 32 21 21 25 25 20 19 28 34 33 48 45 36 35 38 40 39 38 38 37 34 33 32 34 33 33 29 25 22 22 19 17 15 12 11 11 10 10
9 4 13 27 32 31 27 22 23 29 27 20 33 23 24 34 30 30 30 35 38 37 37 36 37 38 34 35 33 32 34 35 33 28 23 22 19 15 15 14 14 11 10 7
14 12 4 6 31 28 25 20 28 30 31 19 32 23 30 28 26 30 32 33 31 32 35 35 35 35 35 32 31 32 36 40 35 27 23 21 18 15 15 16 13 12 9 6
14 13 15 14 24 22 15 32 27 24 18 25 34 31 33 29 28 33 30 28 30 31 33 32 33 32 32 33 33 33 33 33 34 27 23 20 17 18 16 15 12 10 7 5
17 10 12 7 1 15 20 19 21 21 18 21 31 31 33 30 33 29 26 27 28 31 32 33 29 29 31 31 30 31 30 24 27 25 25 20 17 19 16 13 10 8 7 6
19 12 2 1 14 15 25 22 27 27 17 25 34 35 32 32 30 26 24 25 27 31 31 28 23 24 27 28 27 27 26 19 24 24 25 24 22 18 13 9 9 8 7 5
9 8 6 6 9 16 22 32 37 23 22 32 31 32 30 26 25 22 21 22 24 27 24 22 20 21 27 33 30 27 27 24 34 38 34 27 18 13 11 10 9 7 5 5
11 13 17 16 13 18 15 37 25 29 29 32 30 27 22 22 23 21 20 19 22 22 21 19 13 10 13 15 21 29 34 35 36 31 23 18 14 13 11 9 7 5 3 2
Wind_Direction
305 298 291 291 294 292 290 289 286 288 292 289 281 276 279 284 283 279 279 277 275 275 278 280 280 277 277 275 273 271 270 266 260 259 258 256 251 253 250 269 264 251 269 258
306 296 299 302 301 297 295 293 291 293 295 294 287 275 278 282 283 282 280 279 277 276 279 278 279 280 277 274 272 271 270 267 265 261 261 260 255 267 272 271 271 266 267 271
312 311 312 307 303 299 298 294 294 292 298 299 294 283 287 288 286 284 284 282 279 276 277 281 281 277 277 277 277 274 271 270 266 263 264 264 263 267 268 270 269 267 274 279
311 315 314 303 301 306 298 306 303 299 300 291 307 278 289 295 293 289 286 285 280 279 280 280 282 279 277 275 277 277 274 271 268 265 262 262 264 264 265 270 277 276 274 276
307 312 312 308 307 312 305 313 305 302 300 297 297 287 285 298 299 303 295 293 287 284 282 282 280 280 278 278 277 278 277 274 271 268 263 262 264 268 266 269 272 275 274 279
299 309 310 307 314 314 316 310 307 308 303 292 297 293 285 296 301 301 300 298 291 289 286 285 285 282 279 278 278 279 276 274 277 271 265 260 262 263 267 270 271 271 276 279
306 311 315 314 307 313 315 312 300 296 296 293 302 295 287 295 296 297 298 299 298 295 292 289 287 285 282 278 277 276 277 274 276 273 266 261 262 263 265 264 270 272 272 275
293 296 307 315 309 308 311 311 302 295 295 295 303 295 296 307 306 304 299 299 299 294 295 293 290 287 284 280 276 274 272 273 274 274 270 265 262 266 269 269 267 268 267 273
298 297 309 309 313 315 312 309 314 304 305 299 301 303 302 303 303 298 296 299 301 301 296 293 294 291 286 282 277 273 270 270 271 272 272 267 264 264 267 269 267 264 267 271
304 296 307 308 312 314 312 320 313 315 305 302 305 305 302 304 302 302 298 302 303 303 300 294 294 294 291 285 278 273 269 267 267 269 270 269 263 264 268 269 268 266 266 272
309 303 308 315 311 310 312 311 316 317 314 309 309 309 322 311 303 300 301 306 308 304 302 294 294 295 293 287 279 271 269 266 264 265 265 266 264 264 266 267 268 267 269 272
316 308 299 306 316 314 317 317 319 313 315 317 317 314 331 314 301 298 295 304 305 306 306 299 298 299 296 289 280 271 268 266 262 262 262 263 262 263 265 265 266 264 266 268
323 313 305 312 328 332 328 334 329 325 321 303 313 310 337 308 291 287 289 296 301 303 305 302 303 301 299 292 282 273 268 265 262 259 258 259 258 259 264 263 260 260 261 262
317 308 305 303 310 316 300 322 318 316 321 318 299 273 289 296 290 292 296 297 301 303 297 304 301 298 295 292 283 276 270 265 261 257 254 254 253 258 256 257 258 255 253 252
308 302 313 292 277 290 303 265 312 308 306 307 289 311 276 292 280 299 298 301 306 300 299 303 295 291 286 286 281 279 273 264 258 254 248 247 249 250 252 251 251 248 246 249
309 309 311 288 291 304 309 325 325 324 312 305 310 300 324 322 307 299 301 301 300 289 292 288 283 282 274 276 278 277 270 264 253 249 242 239 241 241 242 244 240 241 245 244
314 306 302 299 312 306 306 333 342 342 345 334 323 331 325 326 321 309 303 299 290 280 290 279 280 269 267 262 268 272 264 261 247 243 234 231 233 234 237 233 232 238 230 218
302 310 298 290 306 309 332 334 338 337 336 329 323 329 333 332 311 283 300 277 273 279 276 272 276 266 248 254 262 269 258 249 240 234 228 220 220 226 229 229 229 210 185 182
174 324 299 301 308 304 319 343 345 342 341 340 334 339 333 327 287 279 273 269 270 272 268 266 266 267 262 263 264 271 250 239 235 226 220 218 217 224 223 218 196 181 173 167
49 88 336 311 304 308 327 341 347 341 332 356 344 333 314 286 276 271 273 274 273 269 267 263 263 267 261 265 265 261 241 232 229 225 221 223 222 217 211 193 180 182 175 174
359 353 338 324 303 314 332 351 343 338 340 330 287 315 288 279 268 274 278 273 265 264 265 261 261 259 260 256 256 252 235 228 226 224 221 218 215 203 188 180 179 169 168 168
10 9 356 1 327 331 359 336 343 342 306 286 288 285 282 277 273 280 274 266 265 264 264 259 258 253 255 260 258 246 237 231 219 215 215 211 200 184 178 176 172 168 164 167
3 27 2 13 212 349 341 339 334 331 320 293 284 283 280 277 282 277 271 270 266 267 267 267 255 253 254 254 248 230 225 219 201 202 203 192 178 182 180 169 168 172 170 169
357 14 73 213 16 350 343 342 340 340 296 279 283 287 279 280 277 272 272 272 274 276 271 261 251 251 247 235 225 221 208 203 189 193 199 184 183 181 183 176 170 166 175 184
226 45 37 352 324 341 345 341 338 287 292 282 280 284 277 270 270 268 268 271 274 275 262 253 249 251 260 206 209 204 204 198 176 182 181 183 176 172 173 186 193 168 203 156
60 32 16 7 338 341 315 299 290 289 287 289 281 279 268 266 267 268 267 270 273 273 265 249 238 234 139 116 155 176 172 171 172 176 180 183 172 165 157 154 177 223 204 147